CAPE
0 0 0 0 0 0 0 0 0 0 0 27 199 379 111 282 272 155 604 1038 1178 1478 1963 1615 1734 1696 1632 1766 1843 2013 2768 3137 3447 3815 3728 3800 3767 4122 4015 3951 3870 3494 2930 2296
0 0 0 0 10 0 0 0 0 0 0 0 8 111 242 209 88 276 259 366 1322 1700 3064 3160 2180 1945 1717 1679 1706 1895 2238 2663 3077 3585 3951 3777 3976 3921 4231 4165 4220 3741 3141 2232
0 0 1 42 0 3 3 0 0 0 0 0 14 96 415 649 472 408 339 297 1413 1927 2156 2871 2881 2422 1949 1805 1977 1916 2565 2726 2918 3542 3947 4053 3976 4032 4279 4297 4194 3698 3328 2319
0 68 90 0 1 0 0 0 0 0 0 0 0 4 16 15 212 242 308 219 336 852 2102 2631 2877 2626 2659 2363 2573 2495 3667 3264 3485 4112 4296 4220 4221 4249 4432 4360 3985 3478 2717 2576
106 32 5 23 39 154 63 5 12 0 22 6 3 0 5 0 3 21 40 780 464 86 1889 2696 2942 2917 3407 3012 2748 3794 3365 4630 4128 5033 4793 4762 4742 4681 4495 3799 3069 3033 2637 2170
124 73 113 223 191 455 242 211 496 584 263 103 125 60 0 16 14 4 9 122 549 331 2303 3358 3354 3200 3366 3692 3440 3233 4295 4442 5008 5021 4950 4888 4790 4364 3421 3431 3192 2731 1723 2080
95 40 0 388 388 134 147 287 1039 907 856 714 551 806 966 527 1617 649 132 382 1574 3051 2911 3519 3615 3516 3660 3819 3989 4020 4533 4546 4828 4917 4957 4833 4538 3296 3039 3335 2622 1701 1985 1573
369 336 202 454 205 155 1077 865 774 683 652 743 1105 922 905 1172 1328 1640 843 918 3037 3569 4082 4067 3948 4029 4174 4245 4439 4556 4489 4465 4626 4686 3833 3788 3384 2730 2749 2373 1953 1661 1647 1148
40 34 715 1114 1253 1018 925 883 934 828 723 702 666 826 787 1434 1023 1234 1143 2930 2691 3753 4123 4124 4552 4039 4149 4397 4092 4013 4029 4257 4217 3890 3473 3131 2771 2701 2439 2267 1829 1520 1664 1611
146 489 1068 821 624 819 876 1126 1212 1906 2036 1322 808 922 1324 1702 2099 2674 2767 3062 3123 3084 3414 3680 3859 4085 4327 4345 4222 4134 4104 3715 3270 2641 2544 2577 2375 2213 1847 1687 1499 1624 1814 2157
242 1460 1142 1038 1101 1077 1159 1617 1771 1513 1461 1784 1884 1973 2005 2647 2846 2755 2736 2821 3006 3139 3594 3959 4403 4034 4060 4243 4026 3253 2891 2647 2313 1882 2150 2111 2017 1482 1404 1078 1062 1901 1964 1693
1066 769 1275 612 697 689 648 754 860 1061 1195 1158 1138 1074 1196 1900 2191 2464 2607 2497 2641 3122 3432 3445 3496 3587 3788 3882 3263 3053 2608 2247 1834 1952 2124 1700 1356 947 930 993 856 638 670 796
63 48 128 91 76 111 228 288 283 523 527 273 455 532 566 642 1171 1455 1672 2167 2831 3196 3323 3221 3208 3042 3310 3654 3418 2843 2372 2310 1941 1636 1622 1170 810 675 544 464 414 412 348 2
10 13 0 0 6 0 16 105 138 174 123 55 27 120 12 177 712 955 1976 2143 2715 3000 3085 3107 2692 2627 2749 2877 3125 3319 2734 1977 1845 1699 1765 1694 1543 1121 899 447 304 0 0 0
2 0 39 20 42 2 0 0 0 0 0 0 0 0 0 0 34 182 389 1803 2179 2307 2457 2847 2781 2826 2788 2742 3000 2405 2170 1550 1226 1707 1712 1437 1285 1201 636 290 144 0 0 0
60 47 29 44 57 3 1 2 0 0 0 0 0 0 0 1 7 23 111 464 1396 2018 2524 2179 2226 2386 2221 2219 2421 2260 2043 933 1027 1279 681 883 707 624 606 659 86 41 26 0
49 48 69 35 30 19 14 24 25 5 10 4 0 0 1 23 50 265 390 296 790 1151 1648 1896 2231 2365 2168 1987 2198 1258 611 883 563 912 482 476 364 319 305 297 242 114 52 13
106 116 58 23 35 2 8 2 3 0 0 0 0 55 42 22 69 192 721 511 458 1446 1469 1828 1740 2087 1411 1193 1102 967 231 373 262 286 432 528 645 479 294 163 195 259 192 54
19 22 1 3 0 0 0 0 0 21 46 54 0 0 107 107 54 429 121 265 513 703 1115 1526 769 941 1327 706 491 707 296 101 100 119 101 72 78 178 277 336 35 38 69 27
3 0 30 11 17 37 22 14 46 43 64 104 175 151 230 123 236 407 681 671 835 443 625 768 1065 858 897 947 275 114 169 111 130 182 206 140 132 238 103 70 94 60 52 29
29 27 68 100 15 45 78 80 135 116 167 184 172 128 214 191 211 237 323 404 331 287 373 135 720 306 219 109 57 76 69 132 63 127 139 46 66 125 105 138 107 161 109 87
65 55 55 45 15 61 60 48 87 191 161 215 148 143 216 224 261 146 249 194 147 25 1 39 34 46 30 44 96 82 62 65 27 5 45 50 1 40 98 60 58 105 127 172
102 146 122 143 96 99 53 89 89 150 204 191 161 155 84 78 89 87 304 3 21 0 9 19 15 13 11 39 63 38 14 12 1 1 0 0 0 0 0 0 2 65 100 80
173 173 119 170 94 156 223 91 43 110 87 64 59 50 145 19 84 66 37 0 0 21 3 9 44 5 0 1 25 22 25 11 1 0 2 0 0 0 0 0 0 1 14 5
75 241 114 124 38 14 113 120 38 35 122 167 68 109 110 55 110 26 27 27 0 47 65 16 1 0 0 2 2 25 35 24 26 35 43 31 1 2 12 3 2 6 8 12
80 42 57 102 14 0 0 0 1 23 13 35 28 12 33 92 62 60 128 59 54 22 24 122 57 12 19 16 11 33 74 39 52 46 35 43 21 5 2 23 4 0 5 0
17 0 7 0 0 0 0 0 0 0 0 0 0 0 5 35 44 13 11 37 21 23 30 126 103 58 51 35 61 41 50 72 46 11 20 36 39 63 40 46 59 38 6 0
CIN
0 0 0 0 0 0 0 0 0 0 0 -6 -34 -16 -30 -7 -13 -13 -9 -23 -18 -15 -55 -105 -149 -233 -239 -178 -178 -132 -115 -93 -91 -77 -83 -55 -36 -17 -21 -11 -6 -7 -16 -51
0 0 0 0 -1 0 0 0 0 0 0 0 -10 -42 -24 -17 -58 -16 -25 -23 -34 -49 -33 -55 -99 -195 -249 -193 -221 -147 -147 -130 -126 -104 -75 -74 -42 -30 -9 -5 -3 -4 -12 -70
0 0 -1 0 0 -2 -1 0 0 0 0 0 -14 -20 -16 -56 -21 -14 -18 -23 -20 -38 -54 -50 -70 -156 -202 -226 -182 -172 -125 -123 -135 -120 -86 -57 -37 -13 -7 -5 -4 -1 -2 -23
0 -1 -1 0 -2 0 0 0 0 0 0 0 0 -20 -17 -52 -33 -63 -9 -20 -40 -19 -42 -80 -46 -66 -116 -145 -167 -164 -59 -82 -86 -67 -62 -46 -17 -6 -7 -4 -1 -1 -5 -5
0 -1 -5 -1 -2 -4 -4 -2 -3 0 -16 -1 -2 0 -58 0 -50 -40 -63 -23 -54 -37 -41 -109 -87 -110 -87 -125 -166 -70 -87 -38 -51 -24 -25 -7 -4 -5 -2 -2 -9 -4 -15 -38
-1 -1 -5 0 -2 -39 -53 -31 -13 -14 -15 -14 -3 -8 0 -74 -37 -18 -28 -17 -27 -45 -55 -81 -124 -104 -121 -79 -124 -131 -57 -49 -31 -23 -13 -3 -1 -1 -18 -9 -13 -31 -95 -38
-6 -2 0 -23 -34 -71 -31 -23 -43 -36 -37 -40 -33 -31 -60 -7 -37 -33 -57 -36 -22 -47 -85 -125 -129 -115 -119 -96 -103 -97 -31 -34 -17 -10 -6 -3 -3 -56 -46 -25 -49 -114 -45 -51
-1 -9 -49 -31 -109 -8 -21 -44 -49 -43 -39 -53 -32 -28 -40 -23 -43 -37 -26 -34 -30 -45 -72 -110 -107 -60 -58 -37 -26 -19 -30 -21 -6 -3 -23 -15 -42 -97 -62 -67 -90 -87 -43 -74
-8 -2 -5 -6 -15 -39 -30 -20 -40 -52 -42 -50 -33 -20 -14 -17 -19 -23 -14 -28 -35 -59 -84 -70 -40 -57 -29 -23 -24 -28 -25 -3 -3 -14 -41 -78 -100 -64 -51 -51 -70 -59 -16 -4
-18 -5 -9 -25 -25 -30 -31 -24 -23 -35 -48 -27 -23 -6 -6 -23 -30 -47 -59 -47 -69 -101 -64 -38 -35 -14 -11 -7 -9 -4 -1 -21 -57 -120 -117 -92 -70 -61 -71 -66 -52 -8 -5 -2
-19 -9 -15 -22 -22 -14 -38 -42 -55 -137 -146 -110 -74 -48 -28 -16 -7 -17 -36 -45 -35 -21 -3 -3 -5 -3 -2 -1 -2 -48 -85 -94 -111 -143 -87 -65 -72 -96 -86 -100 -48 -5 -4 -5
-7 -8 -24 -19 -32 -61 -111 -120 -124 -67 -54 -42 -48 -49 -81 -75 -59 -56 -44 -46 -29 -8 -5 -6 -8 -4 0 -1 -32 -55 -76 -93 -119 -80 -42 -71 -90 -115 -78 -35 -23 -19 -10 -14
-14 -21 -12 -16 -107 -159 -111 -113 -145 -59 -30 -21 -85 -65 -98 -21 -4 -32 -17 -35 -13 0 0 -1 -4 -15 -4 -1 -7 -34 -66 -48 -58 -76 -49 -97 -129 -116 -103 -77 -65 -55 -40 -3
-7 -5 0 0 -59 -54 -122 -117 -97 -81 -61 -55 -39 -34 -12 -4 0 -11 -8 -4 -1 0 -1 -1 -13 -35 -30 -23 -5 -1 -7 -40 -24 -22 -21 -22 -4 -16 -39 -74 -58 0 0 0
-4 0 -2 -5 -20 -38 0 0 0 -42 0 0 0 0 0 0 -41 -74 -74 -2 -1 0 -2 0 -1 0 0 -1 -1 -14 -11 -16 -87 -13 -7 -18 -8 -1 -9 -57 -71 -1 0 0
0 -16 -25 -27 -35 -40 -19 -52 0 0 0 0 0 0 0 -28 -137 -135 -143 -49 -17 -2 -2 -11 -10 -5 -13 -12 -6 -3 -6 -53 -11 -8 -11 -10 -5 -2 -1 -13 -55 -2 -20 0
-3 0 -1 -1 0 0 -1 -2 -2 -10 -12 -25 0 0 -1 -55 -66 -26 -39 -82 -24 -10 -7 -3 -5 -14 -13 -5 -3 -4 -43 -8 -12 -6 -25 -10 -6 -11 -3 -4 -23 -82 -17 -6
-2 0 0 -2 -17 -1 0 -1 -6 0 0 0 0 -1 -1 -20 -12 -16 -4 -5 -7 -6 -15 -17 -15 -11 -18 -20 -29 -13 -33 -23 -15 -8 -15 -11 -3 -4 -5 -4 -26 -39 -15 -14
-4 -2 -4 -3 0 0 0 0 0 -2 -2 -4 0 0 -5 -3 -3 -4 -38 -22 -7 -9 -5 -4 -12 -7 -12 -24 -36 -16 -16 -10 -31 -19 -2 -6 -17 -4 -39 -21 -51 -22 -46 -13
-8 0 -1 -1 -3 -11 -41 -94 -29 -28 -1 -3 -2 -5 0 -8 -15 -7 -3 -5 -4 -11 -9 -12 -11 -3 -10 -14 -21 -23 -14 -54 -51 -54 -103 -56 -48 -119 -6 -17 -38 -30 -6 -44
-4 -1 -2 -3 -2 -16 -12 -2 -5 -5 -8 -3 -7 -9 -6 -12 -17 -20 -69 -9 -6 -14 -7 -19 -3 -2 -3 -48 -5 -2 -2 -41 -61 -34 -36 -43 -12 -9 -64 -1 -6 -11 -29 -20
-4 -10 -18 -15 -4 -13 -13 -27 -28 -11 -14 0 -3 -9 -8 -19 -6 -14 -12 -11 -14 -2 -1 -3 -4 -5 -9 -7 -7 -2 -25 -29 -23 -11 -9 -7 -21 -9 -5 -26 -5 -10 -12 -12
-4 -1 -3 -5 -15 -9 -28 -17 -22 -9 -3 0 -1 -1 -6 -33 -40 -20 -6 -29 -14 0 -5 -3 -12 -4 -9 -6 -3 -1 -4 -3 -3 -1 0 0 0 0 0 0 -3 -6 -26 -40
-3 -6 -42 -2 -4 -7 -2 -23 -3 -3 -3 -4 -1 -8 -1 -4 -13 -8 -14 0 -1 -2 -19 -15 -1 -1 0 -3 -7 -2 -1 -5 -1 0 -2 0 0 0 0 0 0 -3 -6 -4
-21 -5 -20 -13 -14 -27 -27 -13 -13 -29 -7 -3 -1 -2 -3 -14 -3 -3 -3 -3 0 -7 -24 -12 -1 0 0 -2 -4 -1 -3 -6 -1 -11 -5 -2 -2 -2 -1 -1 -1 -1 -3 -5
-16 0 -1 -7 -5 0 0 0 -1 -3 -2 -3 -1 -1 -3 -19 -6 -8 -4 -17 -4 -3 -5 -13 -35 -15 -18 -1 -1 -1 -18 -3 -11 -5 -12 -1 -2 -2 -2 -3 -3 0 -2 0
-4 0 -1 0 0 0 0 0 0 0 0 0 0 0 -22 -1 -10 -2 -8 -22 -4 -4 -11 -20 -2 -2 -5 -4 -2 -9 -6 -14 -76 -1 -1 -12 -20 -7 -6 -3 -4 -4 -3 0
Wind_Speed
nan nan nan nan nan nan nan nan nan nan nan nan 37 23 30 23 29 16 19 39 35 34 37 35 35 31 28 26 29 29 22 20 22 20 19 13 16 20 26 27 34 37 40 46
nan nan nan nan nan nan nan nan nan nan nan nan nan 41 35 31 nan 27 22 31 47 33 36 36 38 30 27 26 29 26 24 21 20 20 18 18 18 23 25 30 36 40 44 50
nan nan nan nan nan nan nan nan nan nan nan nan nan nan 36 40 32 29 32 27 46 39 29 30 35 33 28 23 29 27 28 22 16 16 18 19 20 23 25 32 34 41 46 52
nan nan nan nan nan nan nan nan nan nan nan nan nan nan nan nan 36 35 32 31 30 41 44 34 31 36 28 27 26 28 31 28 17 15 20 22 26 29 32 33 37 40 46 52
30 nan nan nan nan 32 nan nan nan nan nan nan nan nan nan nan nan nan nan 28 42 nan 52 45 34 31 31 29 25 28 30 29 23 25 30 30 31 35 36 38 40 43 46 54
33 nan 28 26 21 47 58 43 48 50 45 39 19 nan nan nan nan nan nan 35 41 37 43 39 35 34 32 32 26 28 30 29 32 33 33 34 37 39 41 43 43 46 51 54
nan nan nan 34 39 42 38 41 42 46 48 48 48 44 40 24 55 57 41 34 55 42 37 44 31 35 30 31 30 28 35 32 32 33 37 38 41 41 43 46 49 51 55 56
38 34 38 58 42 16 46 40 40 46 46 47 46 42 33 39 40 46 50 62 58 46 54 38 38 41 37 36 36 36 38 38 39 39 40 41 43 45 48 52 54 56 59 58
nan nan 26 26 56 50 41 45 40 40 41 33 31 38 40 52 49 43 42 55 68 73 59 49 48 47 44 44 41 42 44 44 44 45 44 51 47 48 47 55 61 60 60 60
36 36 43 50 50 46 52 53 51 60 59 42 27 36 48 54 57 51 53 53 56 55 54 54 52 50 45 44 46 46 47 49 52 51 48 49 51 54 59 60 60 58 60 61
32 42 57 61 66 59 61 64 54 64 60 62 63 64 61 64 60 61 56 57 53 51 48 49 52 50 47 44 43 45 46 50 53 54 53 54 52 52 57 61 58 61 62 60
53 66 61 59 59 61 62 60 59 55 58 61 60 57 59 62 63 62 57 56 56 50 46 47 49 51 47 45 48 51 51 51 52 51 52 55 57 60 66 66 63 61 55 57
nan nan 76 nan nan 63 57 56 54 53 54 56 48 54 57 44 53 48 40 46 43 39 43 46 49 51 50 49 52 56 57 51 49 54 52 53 56 61 63 64 66 58 51 nan
nan nan nan nan nan nan nan 60 55 44 47 nan nan 46 nan 43 39 40 41 40 40 42 41 43 48 50 53 56 52 48 50 51 52 52 53 53 58 60 59 56 55 nan nan nan
nan nan nan nan nan nan nan nan nan nan nan nan nan nan nan nan nan 38 41 40 40 42 47 54 43 42 43 46 48 56 56 56 57 54 62 60 62 61 58 52 51 nan nan nan
nan nan nan nan nan nan nan nan nan nan nan nan nan nan nan nan nan nan 42 47 45 43 43 49 44 49 44 46 45 43 51 46 38 47 52 58 59 48 43 49 nan nan nan nan
nan nan nan nan nan nan nan nan nan nan nan nan nan nan nan nan nan 50 48 47 48 50 46 50 58 46 55 55 53 50 50 46 49 54 56 49 47 43 43 44 49 45 nan nan
27 25 nan nan nan nan nan nan nan nan nan nan nan nan nan nan nan 56 54 60 51 55 52 51 46 50 50 49 48 50 52 45 45 40 46 43 44 40 39 43 47 44 37 nan
nan nan nan nan nan nan nan nan nan nan nan nan nan nan 51 49 nan 50 53 60 57 59 55 53 53 53 55 66 45 37 48 41 43 45 46 nan nan 41 45 43 nan nan nan nan
nan nan nan nan nan nan nan nan nan nan nan 24 29 32 35 50 62 62 67 65 67 52 51 49 43 54 59 42 38 36 45 46 46 47 42 42 39 41 33 nan nan nan nan nan
nan nan nan 40 nan nan nan nan 28 31 38 39 35 30 29 34 43 46 38 28 31 33 36 35 36 32 33 39 nan nan nan 42 nan 36 43 nan nan 38 36 27 34 35 36 nan
nan nan nan nan nan nan nan nan nan 24 23 18 19 19 20 22 26 29 29 29 34 nan nan nan nan nan nan nan nan nan nan nan nan nan nan nan nan nan nan nan nan 30 32 28
21 30 37 32 nan nan nan nan nan 13 16 21 24 27 nan nan nan nan 30 nan nan nan nan nan nan nan nan nan nan nan nan nan nan nan nan nan nan nan nan nan nan nan 30 nan
2 9 14 19 nan 17 15 nan nan 21 nan nan nan nan 29 nan nan nan nan nan nan nan nan nan nan nan nan nan nan nan nan nan nan nan nan nan nan nan nan nan nan nan nan nan
nan 10 12 13 nan nan 16 23 nan nan 21 20 nan 19 22 nan 28 nan nan nan nan nan nan nan nan nan nan nan nan nan nan nan nan nan nan nan nan nan nan nan nan nan nan nan
nan nan nan 15 nan nan nan nan nan nan nan nan nan nan nan nan nan nan 27 nan nan nan nan 34 nan nan nan nan nan nan nan nan nan nan nan nan nan nan nan nan nan nan nan nan
nan nan nan nan nan nan nan nan nan nan nan nan nan nan nan nan nan nan nan nan nan nan nan 38 37 nan nan nan nan nan nan nan nan nan nan nan nan nan nan nan nan nan nan nan
Wind_Direction
nan nan nan nan nan nan nan nan nan nan nan nan 184 240 294 251 281 263 204 250 248 257 273 295 294 303 299 300 306 323 327 347 355 357 3 351 6 6 357 1 354 353 346 341
nan nan nan nan nan nan nan nan nan nan nan nan nan 200 212 267 nan 251 261 265 260 247 262 271 286 294 296 289 302 311 319 339 338 345 344 337 329 342 341 342 344 342 340 335
nan nan nan nan nan nan nan nan nan nan nan nan nan nan 221 230 237 274 267 251 258 252 239 252 272 281 283 288 291 305 311 327 324 337 344 335 337 333 329 335 333 335 335 327
nan nan nan nan nan nan nan nan nan nan nan nan nan nan nan nan 224 227 241 269 247 254 266 255 264 282 269 267 280 297 297 316 300 306 329 332 334 334 326 324 326 323 323 323
205 nan nan nan nan 201 nan nan nan nan nan nan nan nan nan nan nan nan nan 249 267 nan 273 269 268 270 262 266 281 282 300 303 307 286 295 312 320 319 318 318 317 317 313 316
199 nan 201 217 196 228 224 228 213 209 211 215 227 nan nan nan nan nan nan 217 234 260 251 272 264 265 261 262 271 283 291 297 287 288 297 302 305 304 308 309 309 309 308 312
nan nan nan 204 240 246 242 227 211 216 221 215 215 216 204 221 219 217 221 222 230 239 259 270 257 262 268 265 270 279 277 285 286 290 294 296 296 298 299 305 306 303 304 309
191 222 210 249 234 209 220 226 218 218 219 223 228 220 203 218 226 211 218 229 236 236 253 260 255 256 256 256 257 263 272 279 282 284 287 287 292 292 297 302 301 300 304 306
nan nan 206 246 222 241 250 245 230 228 227 217 219 224 226 237 223 229 204 233 236 239 238 240 236 248 252 254 256 260 268 273 277 279 277 283 287 283 291 297 301 302 305 305
215 211 216 229 236 233 233 240 235 232 232 225 220 215 223 229 230 239 226 233 240 235 233 232 235 244 249 253 260 266 267 269 270 271 272 273 278 286 292 294 297 300 305 302
200 237 232 228 230 223 236 240 239 238 245 230 232 217 220 225 234 240 242 238 230 232 229 232 235 244 247 249 253 257 259 262 265 270 275 277 269 277 288 286 292 302 304 305
195 203 231 236 236 236 239 236 234 240 247 236 232 233 225 224 229 232 226 226 225 230 228 231 234 239 248 253 257 262 265 264 268 270 273 276 278 280 274 281 285 289 291 299
nan nan 215 nan nan 234 238 237 239 249 253 242 239 247 234 209 215 214 223 222 229 228 231 233 233 236 244 250 256 263 266 269 266 273 277 284 284 286 288 289 290 286 285 nan
nan nan nan nan nan nan nan 239 244 246 238 nan nan 248 nan 198 202 214 220 230 235 235 245 240 240 240 243 246 249 255 259 265 266 269 271 282 288 292 296 301 299 nan nan nan
nan nan nan nan nan nan nan nan nan nan nan nan nan nan nan nan nan 213 220 230 238 240 229 235 233 237 242 249 252 255 256 259 259 260 270 281 284 288 298 301 303 nan nan nan
nan nan nan nan nan nan nan nan nan nan nan nan nan nan nan nan nan nan 224 224 228 239 245 248 236 235 242 241 246 268 271 269 279 273 272 277 284 293 298 298 nan nan nan nan
nan nan nan nan nan nan nan nan nan nan nan nan nan nan nan nan nan 226 232 227 225 228 232 257 253 258 258 262 261 264 267 264 263 276 281 286 292 294 297 298 297 300 nan nan
237 255 nan nan nan nan nan nan nan nan nan nan nan nan nan nan nan 224 227 232 228 238 238 239 249 262 257 260 251 251 264 271 276 277 283 288 290 290 291 289 294 303 298 nan
nan nan nan nan nan nan nan nan nan nan nan nan nan nan 214 237 nan 242 249 249 245 242 240 244 241 245 249 251 252 258 270 275 279 277 281 nan nan 288 283 283 nan nan nan nan
nan nan nan nan nan nan nan nan nan nan nan 235 238 226 224 228 236 237 245 244 253 236 239 251 257 252 243 261 255 259 269 267 271 275 276 273 274 278 270 nan nan nan nan nan
nan nan nan 265 nan nan nan nan 238 233 232 229 230 228 231 240 240 231 226 237 242 241 243 249 255 259 266 265 nan nan nan 278 nan 280 287 nan nan 286 289 287 281 287 293 nan
nan nan nan nan nan nan nan nan nan 217 211 200 209 211 220 239 246 250 251 248 257 nan nan nan nan nan nan nan nan nan nan nan nan nan nan nan nan nan nan nan nan 279 283 287
215 221 216 209 nan nan nan nan nan 237 239 228 228 222 nan nan nan nan 248 nan nan nan nan nan nan nan nan nan nan nan nan nan nan nan nan nan nan nan nan nan nan nan 284 nan
249 214 202 224 nan 221 220 nan nan 244 nan nan nan nan 239 nan nan nan nan nan nan nan nan nan nan nan nan nan nan nan nan nan nan nan nan nan nan nan nan nan nan nan nan nan
nan 261 236 232 nan nan 238 243 nan nan 248 232 nan 246 244 nan 248 nan nan nan nan nan nan nan nan nan nan nan nan nan nan nan nan nan nan nan nan nan nan nan nan nan nan nan
nan nan nan 246 nan nan nan nan nan nan nan nan nan nan nan nan nan nan 271 nan nan nan nan 279 nan nan nan nan nan nan nan nan nan nan nan nan nan nan nan nan nan nan nan nan
nan nan nan nan nan nan nan nan nan nan nan nan nan nan nan nan nan nan nan nan nan nan nan 266 262 nan nan nan nan nan nan nan nan nan nan nan nan nan nan nan nan nan nan nan